Regional Weather Roundup
Issued by NWS

Home | Current Version | Previous Version | Text Only | Print | Product List | Glossary On
Versions: 1 2 3 4 5 6 7 8 9 10 11 12 13 14 15 16 17 18 19 20 21 22 23 24 25 26 27 28 29 30 31 32 33 34 35 36 37 38 39 40 41 42 43 44 45 46 47 48 49 50
888
ASUS46 KSEW 211710
RWRWA

WASHINGTON REGIONAL WEATHER ROUNDUP
NATIONAL WEATHER SERVICE SEATTLE WA
900 AM PST TUE FEB 21 2017

NOTE:"FAIR" INDICATES FEW OR NO CLOUDS BELOW 12,000 FEET WITH NO
SIGNIFICANT WEATHER AND/OR OBSTRUCTIONS TO VISIBILITY.

WAZ507-509-555>559-211800-
SEATTLE, TACOMA, EVERETT, AND VICINITY

CITY           SKY/WX    TMP DP  RH WIND       PRES   REMARKS
EVERETT        CLOUDY    42  41  96 VRB6      29.81R FOG
BOEING FIELD   LGT RAIN  44  43  96 NE3       29.82R
RENTON         LGT RAIN  43  42  97 NW3       29.82R
SEATAC AIRPORT LGT RAIN  43  41  93 N7        29.81R FOG
JBLM-MCCHORD   LGT RAIN  43  43 100 CALM      29.82R
PUYALLUP       DRIZZLE   41  41 100 CALM      29.82R
BREMERTON      CLOUDY    43  39  87 N3        29.85R
JBLM-FT LEWIS  LGT RAIN  43  43 100 CALM      29.82R
TACOMA NARROWS LGT RAIN  43  42  97 NW5       29.82R FOG
$$

WAZ001-503-506-510-514-515-211800-
NORTH INTERIOR

CITY           SKY/WX    TMP DP  RH WIND       PRES   REMARKS
BELLINGHAM     CLOUDY    41  40  96 VRB5      29.83R
FRIDAY HARBOR  PTSUNNY   44  37  76 N6        29.85R
EASTSOUND      CLOUDY    43  39  87 N15G21    29.83R
PORT ANGELES   CLOUDY    42  41  96 W5        29.85R
EDIZ HOOK      CLOUDY    43  40  89 SW5       29.86R
PORT TOWNSEND  CLOUDY    43  43 100 CALM      29.84R
NAS WHIDBEY    CLOUDY    45  37  73 N15       29.87R
ARLINGTON      CLOUDY    39  34  81 N6        29.84R
BURLINGTON     CLOUDY    43  39  87 NW9       29.84R
$$

WAZ020-022-039-040-504-511-512-211800-
SOUTHWEST INTERIOR

CITY           SKY/WX    TMP DP  RH WIND       PRES   REMARKS
SHELTON        CLOUDY    42  40  92 CALM      29.81R
OLYMPIA        CLOUDY    44  43  96 NW3       29.83R
CHEHALIS       LGT RAIN  45  45 100 N6        29.83R
KELSO          CLOUDY    44  43  96 CALM      29.85R
VANCOUVER      LGT RAIN  45  45 100 CALM      29.84R FOG
SCAPPOOSE, OR  LGT RAIN  45  43  93 W3        29.83R
PORTLAND, OR   LGT RAIN  44  43  96 W5        29.84R FOG
$$

WAZ021-516-517-211800-
WASHINGTON COAST

CITY           SKY/WX    TMP DP  RH WIND       PRES   REMARKS
FORKS          MOSUNNY   36  36 100 CALM      29.86R
HOQUIAM        MOSUNNY   41  39  93 W5        29.85R
ASTORIA, OR    CLOUDY    44  41  89 CALM      29.86R
$$

WAZ019-023-024-040-567>569-211800-
CASCADE MOUNTAINS AND COLUMBIA GORGE

CITY           SKY/WX    TMP DP  RH WIND       PRES   REMARKS
STAMPEDE PASS  NOT AVBL
TROUTDALE, OR  LGT RAIN  45  43  93 SW5       29.84R FOG
THE DALLES, OR LGT RAIN  40  40 100 CALM      29.78R FOG
$$

WAZ026-027-041>044-520-521-211800-
EAST SLOPES

CITY           SKY/WX    TMP DP  RH WIND       PRES   REMARKS
OMAK           PTSUNNY   36  32  85 N6        29.75R
WENATCHEE      CLOUDY    33  33 100 NW7       29.75R
ELLENSBURG     CLOUDY    35  32  88 CALM      29.73R FOG
YAKIMA         LGT RAIN  38  36  92 W5        29.75R FOG
SUNNYSIDE ARPT DRIZZLE   34  34  99 CALM      29.75R
$$

WAZ028-034-035-211800-
COLUMBIA BASIN

CITY           SKY/WX    TMP DP  RH WIND       PRES   REMARKS
EPHRATA        LGT RAIN  36  30  79 N7        29.73R
MOSES LAKE     LGT RAIN  34  32  92 N7        29.74R
PASCO          LGT RAIN  38  36  92 CALM      29.77R
HERMISTON, OR  LGT RAIN  40  40 100 NE3       29.73R FOG
$$

WAZ036>038-211800-
NORTHEAST WASHINGTON

CITY           SKY/WX    TMP DP  RH WIND       PRES   REMARKS
SPOKANE GEIGER SNOW      33  32  96 N6        29.67S VSB 1/2
SPOKANE FELTS  LGT SNOW  33  33 100 CALM      29.70R FOG
FAIRCHILD AFB  LGT SNOW  32  32 100 N3        29.67R FOG
COEURDALENE,ID LGT SNOW  33  32  96 NE6       29.68R FOG
DEER PARK      LGT SNOW  33  31  92 NW3       29.69R FOG
$$

WAZ029>033-211800-
SOUTHEAST WASHINGTON

CITY           SKY/WX    TMP DP  RH WIND       PRES   REMARKS
PULLMAN        LGT RAIN  40  38  93 SW5       29.67R
LEWISTON, ID   CLOUDY    43  39  86 E5        29.69R
WALLA WALLA    LGT RAIN  36  36 100 S9        29.71R VSB 1/4
PENDLETON, OR    N/A    N/A N/A N/A MISG      29.68R
$$




USA.gov is the U.S. government's official web portal to all federal, state and local government web resources and services.